Location: Bun Machan
(52.1403°N, 7.3744°W)
Time: 18:14:21
(UTC+00:00)

Cosmos 1980 Rocket - Pass Details

Date: 14 July 2020
Orbit: 828 x 851 km, 71.0° (Epoch: 13 August)

Event Time Altitude Azimuth Distance (km) Brightness Sun altitude
Rises 01:37:08 0° 330° (NNW) 3,430 6.1 -15.0°
Reaches altitude 10° 01:39:46 10° 338° (NNW) 2,491 5.4 -14.9°
Maximum altitude 01:45:06 38° 46° (NE) 1,271 3.7 -14.7°
Drops below altitude 10° 01:50:24 10° 115° (ESE) 2,475 4.6 -14.4°
Sets 01:53:01 0° 123° (ESE) 3,404 5.2 -14.3°
